Tracking 30509 objects as of 21-May-2025
HD Live streaming from Space Station
objects crossing your sky now

YZ-1S DEB

Track YZ-1S DEB now!
10-day predictions


NORAD ID: 43644
Int'l Code: 2018-077C
Perigee: 664.0 km
Apogee: 672.8 km
Inclination: 98.0 °
Period: 98.0 minutes
Semi major axis: 7039 km
RCS: Unknown
Launch date: October 9, 2018
Source: People's Republic of China (PRC)
Launch site: Jiuquan Satellite Launch Center, China (JSC)

Note: This is SATELLITE DEBRIS
Your satellite tracking list
Your tracking list is empty




NASA's NSSDC Master Catalog

Two Line Element Set (TLE):
1 43644U 18077C   25141.59866000  .00002263  00000-0  38573-3 0  9993
2 43644  97.9661 188.2387 0006231 222.2779 137.7948 14.69944441353063
Source of the keplerian elements: AFSPC